[[{"header":{"parameterUnit":"m.s-1","parameterCategory":1,"la1":30.2991,"la2":30.254,"lo1":-89.0895,"lo2":-89.0444,"dy":0.0017,"dx":0.0017,"nx":28,"ny":28,"refTime":"2023-09-29T03:00:00:Z","depth":0,"parameterNumber":2,"parameterNumberName":"U-component_of_WINDS"},"data":[0,0,0,0,0,0,0,0,0,0,0,0,0,0,0,0,0,0,0,0,0,0,0,0,0,0,0,0,0,0,0,0,0,0,0,0,0,0,0,0,0,0,0,0,0,0,0,0,0,0,0,0,0,0,0,0,0,0,-1.8765,-1.8764,0,-1.8713,-1.8712,-1.8712,-1.866,-1.8659,-1.8659,-1.8658,-1.8607,-1.8606,-1.8605,0,0,0,0,0,0,0,0,0,0,0,0,0,-1.8824,-1.8823,-1.8765,-1.8764,-1.8764,-1.8713,-1.8712,-1.8712,-1.866,-1.8659,-1.8659,-1.8658,-1.8607,-1.8606,-1.8605,0,0,0,0,0,0,0,0,0,0,0,0,0,-1.8788,-1.8823,-1.8765,-1.8732,-1.8728,-1.8713,-1.8712,-1.8711,-1.866,-1.8659,-1.8658,-1.8657,-1.8607,-1.8606,-1.8605,-1.8619,0,0,-1.8602,-1.8601,0,0,0,0,0,0,0,0,-1.879,-1.8786,-1.8738,-1.8734,-1.873,-1.8692,-1.8714,-1.868,-1.8661,-1.8686,-1.8658,-1.8657,-1.8636,-1.8632,-1.8625,-1.8616,-1.8614,-1.8601,-1.8601,-1.86,-1.86,0,0,0,0,0,0,0,-1.8792,-1.8788,-1.8744,-1.8737,-1.8733,-1.8721,-1.8715,-1.8707,-1.8668,-1.8684,-1.868,-1.8675,-1.8634,-1.8626,-1.8623,-1.8613,-1.8602,-1.8601,-1.86,-1.8599,-1.8618,-1.8619,0,0,0,0,0,0,-1.88,-1.879,-1.8746,-1.8743,-1.8758,-1.8721,-1.8714,-1.8705,-1.8667,-1.8661,-1.8675,-1.8672,-1.8628,-1.8625,-1.8621,-1.8638,-1.86,-1.8599,-1.8599,-1.8616,-1.8618,-1.8619,0,0,0,0,0,0,-1.8801,-1.8796,-1.8748,-1.8765,-1.8758,-1.8721,-1.8712,-1.8705,-1.8697,-1.8661,-1.8654,-1.8675,-1.8628,-1.8623,-1.862,-1.8635,-1.8599,-1.8598,-1.8615,-1.8617,-1.8618,-1.8669,0,0,0,0,0,0,-1.8803,-1.8797,-1.8801,-1.8766,-1.8758,-1.8747,-1.8713,-1.8705,-1.8695,-1.869,-1.8658,-1.8652,-1.8626,-1.8622,-1.8619,-1.8633,-1.8597,-1.8614,-1.8616,-1.8618,-1.8666,-1.8673,-1.8678,0,0,0,0,0,-1.8805,-1.8817,-1.8801,-1.8796,-1.8761,-1.8748,-1.8744,-1.8713,-1.8696,-1.8701,-1.8678,-1.8653,-1.8634,-1.8623,-1.8619,-1.8632,-1.8613,-1.8615,-1.8618,-1.8664,-1.8671,-1.8678,0,0,0,0,0,0,-1.8854,-1.8811,-1.8794,-1.8794,-1.8775,-1.8739,-1.8744,-1.8722,-1.8707,-1.8704,-1.8667,-1.866,-1.8663,-1.8647,-1.8635,-1.8646,-1.862,-1.8622,-1.8656,-1.8663,-1.8669,-1.8674,-1.8596,0,0,0,0,0,-1.8865,-1.8857,-1.882,-1.8824,-1.8816,-1.8782,-1.8774,-1.8753,-1.8732,-1.8724,-1.8701,-1.8682,-1.8673,-1.8667,-1.8655,-1.8663,-1.8658,-1.8671,-1.8677,-1.8682,-1.8685,-1.8692,-1.8698,-1.8627,-1.8627,-1.8627,0,0,-1.8887,-1.8863,-1.886,-1.8833,-1.8816,-1.881,-1.8775,-1.8769,-1.8765,-1.8723,-1.872,-1.8703,-1.868,-1.8684,-1.8685,-1.8671,-1.8703,-1.8685,-1.869,-1.869,-1.8695,-1.8702,-1.8708,-1.8629,-1.8629,-1.8629,0,0,-1.8925,-1.8905,-1.8908,-1.8892,-1.8866,-1.8844,-1.8845,-1.8813,-1.88,-1.8796,-1.8766,-1.8761,-1.8743,-1.873,-1.872,-1.8756,-1.8734,-1.8754,-1.8785,-1.8793,-1.8798,-1.8803,-1.8819,-1.8825,-1.8756,-1.8756,-1.8756,0,-1.8956,-1.8945,-1.8912,-1.8909,-1.89,-1.8861,-1.8866,-1.8852,-1.8824,-1.8819,-1.8804,-1.8784,-1.8765,-1.8767,-1.8777,-1.8769,-1.8771,-1.8758,-1.88,-1.8804,-1.8809,-1.8824,-1.883,-1.8759,-1.8759,-1.8758,-1.8758,0,-1.8987,-1.898,-1.8985,-1.8961,-1.8951,-1.8952,-1.892,-1.8915,-1.8895,-1.8875,-1.8874,-1.8851,-1.8836,-1.8834,-1.8814,-1.8835,-1.8827,-1.8806,-1.878,-1.8819,-1.8833,-1.8838,-1.8763,-1.8762,-1.8761,-1.876,0,0,-1.9054,-1.9012,-1.9015,-1.9005,-1.8975,-1.897,-1.897,-1.8955,-1.8953,-1.8936,-1.8937,-1.8925,-1.8906,-1.8896,-1.8874,-1.888,-1.8915,-1.8858,-1.8857,-1.8873,-1.894,-1.8958,-1.8965,-1.8899,-1.89,-1.89,-1.8943,0,-1.9089,-1.9086,-1.9057,-1.9064,-1.9059,-1.9024,-1.9024,-1.9007,-1.8989,-1.8984,-1.8964,-1.8957,-1.8931,-1.8925,-1.8929,-1.8909,-1.8928,-1.8905,-1.8902,-1.8903,-1.8912,-1.8972,-1.899,-1.9032,-1.8948,-1.8949,-1.895,0,-1.9129,-1.9116,-1.9122,-1.9096,-1.9093,-1.9093,-1.908,-1.9074,-1.9055,-1.9042,-1.9032,-1.9007,-1.9008,-1.8982,-1.8984,-1.8969,-1.8966,-1.8957,-1.8958,-1.8958,-1.893,-1.8977,-1.9044,-1.9051,-1.8957,-1.8956,-1.8956,0,-1.9182,-1.9165,-1.9167,-1.9159,-1.9127,-1.913,-1.9117,-1.9097,-1.9091,-1.9079,-1.9076,-1.9064,-1.9058,-1.905,-1.9025,-1.9007,-1.9031,-1.9002,-1.9023,-1.9024,-1.9031,-1.9031,-1.9101,-1.9024,-1.9024,-1.9024,-1.9024,0,-1.9226,-1.9232,-1.9191,-1.9193,-1.92,-1.9167,-1.9175,-1.9159,-1.9142,-1.9142,-1.911,-1.911,-1.9075,-1.9072,-1.9052,-1.9059,-1.9055,-1.9047,-1.9042,-1.9051,-1.9053,-1.9051,-1.9048,-1.9026,-1.9025,-1.9025,-1.9025,0,-1.9286,-1.9258,-1.9259,-1.923,-1.9223,-1.923,-1.9205,-1.9207,-1.9187,-1.9187,-1.9186,-1.9156,-1.9151,-1.9124,-1.9113,-1.91,-1.9116,-1.9103,-1.9122,-1.9119,-1.9143,-1.9142,-1.9216,-1.9226,-1.914,-1.9141,-1.9141,0,-1.9317,-1.9321,-1.9292,-1.929,-1.9279,-1.9275,-1.9269,-1.9238,-1.9234,-1.9215,-1.922,-1.9212,-1.9205,-1.92,-1.9179,-1.9171,-1.9161,-1.9187,-1.9159,-1.917,-1.9165,-1.9167,-1.9169,-1.9194,-1.9195,-1.9196,-1.9196,0,-1.9376,-1.9363,-1.9356,-1.9345,-1.934,-1.9329,-1.9317,-1.9318,-1.9283,-1.9281,-1.9276,-1.9271,-1.9261,-1.9256,-1.9245,-1.9233,-1.9211,-1.9205,-1.921,-1.9221,-1.9233,-1.9231,-1.9142,-1.9204,-1.9203,-1.9203,-1.9202,-1.9202,-1.9424,-1.9428,-1.9409,-1.9404,-1.9392,-1.9382,-1.9384,-1.9365,-1.936,-1.935,-1.9332,-1.9331,-1.9315,-1.9298,-1.9289,-1.9289,-1.9275,-1.9281,-1.9284,-1.9287,-1.9293,-1.9231,-1.9286,-1.9286,-1.9286,-1.9286,-1.9285,0,-1.9485,-1.9472,-1.9467,-1.9452,-1.9448,-1.9426,-1.9413,-1.9412,-1.9411,-1.9398,-1.9392,-1.9389,-1.9385,-1.9363,-1.9357,-1.9362,-1.9352,-1.9362,-1.9362,-1.9361,-1.9304,-1.9302,-1.937,-1.937,-1.937,-1.937,-1.937,-1.937,-1.9516,-1.9522,-1.9507,-1.9508,-1.9495,-1.9494,-1.9489,-1.9481,-1.9471,-1.9469,-1.9465,-1.9451,-1.9436,-1.9429,-1.9425,-1.9419,-1.942,-1.9434,-1.9425,-1.9372,-1.9364,-1.9357,-1.9355,-1.9433,-1.9433,-1.9482,-1.9483,-1.9483]},{"header":{"parameterUnit":"m.s-1","parameterCategory":1,"la1":30.2991,"la2":30.254,"lo1":-89.0895,"lo2":-89.0444,"dy":0.0017,"dx":0.0017,"nx":28,"ny":28,"refTime":"2023-09-29T03:00:00:Z","depth":0,"parameterNumber":3,"parameterNumberName":"V-component_of_WINDS"},"data":[0,0,0,0,0,0,0,0,0,0,0,0,0,0,0,0,0,0,0,0,0,0,0,0,0,0,0,0,0,0,0,0,0,0,0,0,0,0,0,0,0,0,0,0,0,0,0,0,0,0,0,0,0,0,0,0,0,0,0.9917,0.9916,0,0.9882,0.9881,0.9881,0.9791,0.9789,0.9787,0.9785,0.9749,0.975,0.9751,0,0,0,0,0,0,0,0,0,0,0,0,0,0.9905,0.9906,0.9917,0.9916,0.9916,0.9882,0.9881,0.9881,0.9791,0.9789,0.9787,0.9784,0.9749,0.975,0.9751,0,0,0,0,0,0,0,0,0,0,0,0,0,0.9894,0.9906,0.9917,0.9867,0.9862,0.9882,0.9881,0.9881,0.9792,0.9789,0.9786,0.9783,0.9749,0.975,0.9751,0.9816,0,0,0.9755,0.9755,0,0,0,0,0,0,0,0,0.9895,0.9895,0.9875,0.9871,0.9865,0.9838,0.9864,0.9859,0.9792,0.9819,0.9785,0.9782,0.9781,0.9779,0.9779,0.9814,0.9813,0.9755,0.9756,0.9756,0.9757,0,0,0,0,0,0,0,0.9896,0.9896,0.9903,0.9875,0.9869,0.9846,0.9842,0.9863,0.9816,0.9816,0.9809,0.9807,0.9778,0.9778,0.9778,0.9812,0.9755,0.9756,0.9757,0.9757,0.9895,0.9898,0,0,0,0,0,0,0.9904,0.9897,0.9904,0.9902,0.9873,0.9849,0.9843,0.9849,0.9816,0.9808,0.9809,0.9802,0.9777,0.9776,0.9776,0.9846,0.9756,0.9757,0.9758,0.9892,0.9895,0.9899,0,0,0,0,0,0,0.9904,0.9905,0.9905,0.9898,0.9896,0.9852,0.9859,0.985,0.985,0.981,0.9802,0.9818,0.9775,0.9774,0.9806,0.9843,0.9758,0.9759,0.9888,0.9893,0.9897,0.9988,0,0,0,0,0,0,0.9904,0.9906,0.993,0.9899,0.9897,0.9936,0.9862,0.9852,0.9853,0.9844,0.9816,0.9809,0.9773,0.9804,0.9807,0.9843,0.976,0.9885,0.989,0.9896,0.9982,0.9995,1.0007,0,0,0,0,0,0.9904,0.9958,0.9932,0.9933,0.9926,0.9939,0.9937,0.9894,0.9856,0.988,0.9854,0.981,0.984,0.9808,0.9811,0.9848,0.9882,0.9889,0.9895,0.9976,0.9993,1.0007,0,0,0,0,0,0,0.9995,0.9953,0.9924,0.9969,0.9958,0.9923,0.9951,0.9914,0.9913,0.9905,0.9852,0.9847,0.9885,0.987,0.9836,0.9907,0.9854,0.9861,0.9914,0.993,0.9942,0.9943,0.9761,0,0,0,0,0,1.0021,1.0035,0.9997,1.0041,1.0037,0.9996,1.0,0.9968,0.9954,0.9949,0.9925,0.9913,0.9919,0.9925,0.9929,0.9981,0.9971,1.0008,1.002,1.0031,1.0036,1.0059,1.0073,0.992,0.992,0.992,0,0,1.0074,1.0052,1.0064,1.0059,1.0047,1.0061,0.9992,1.0011,1.002,0.9952,0.9978,0.9961,0.9944,0.9985,1.0002,0.9974,1.0077,1.0039,1.0048,1.0047,1.0067,1.0081,1.0094,0.9925,0.9924,0.9923,0,0,1.0175,1.0163,1.0196,1.0185,1.0166,1.0139,1.0147,1.0118,1.0103,1.013,1.0077,1.0089,1.0102,1.009,1.0087,1.0185,1.0142,1.0188,1.0252,1.0275,1.0286,1.0297,1.0327,1.0339,1.0194,1.0195,1.0195,0,1.0243,1.0262,1.0218,1.0239,1.0237,1.0176,1.0207,1.0199,1.0184,1.0183,1.0153,1.0166,1.0151,1.0186,1.021,1.0211,1.0216,1.0188,1.0289,1.0298,1.0307,1.0336,1.0348,1.02,1.0199,1.0199,1.0198,0,1.0343,1.0358,1.0387,1.0372,1.0374,1.0401,1.036,1.0367,1.0336,1.0311,1.0338,1.0318,1.0314,1.0322,1.0292,1.0353,1.0335,1.0298,1.0242,1.0328,1.0353,1.0364,1.0207,1.0205,1.0204,1.0203,0,0,1.0498,1.0459,1.047,1.0461,1.0437,1.0447,1.0471,1.0468,1.0473,1.0466,1.0482,1.0495,1.0459,1.0455,1.0423,1.0444,1.0518,1.0403,1.0402,1.0421,1.0578,1.0603,1.0617,1.0492,1.0494,1.0496,1.0578,0,1.059,1.0627,1.0588,1.0633,1.0644,1.0586,1.0607,1.0594,1.0572,1.0578,1.0554,1.0561,1.0516,1.0512,1.0531,1.0505,1.0548,1.0499,1.0503,1.0504,1.0504,1.0631,1.0657,1.0736,1.0588,1.059,1.0592,0,1.0701,1.0697,1.0743,1.0713,1.0717,1.0736,1.0728,1.0736,1.0719,1.0702,1.0697,1.0659,1.0679,1.0629,1.0654,1.0622,1.0622,1.061,1.0612,1.0606,1.0549,1.0624,1.0761,1.0771,1.0608,1.0606,1.0605,0,1.0803,1.081,1.0837,1.0832,1.08,1.0814,1.0802,1.0783,1.0783,1.0777,1.0776,1.0774,1.0771,1.077,1.0732,1.0699,1.076,1.0707,1.0743,1.0744,1.0754,1.0753,1.0888,1.0764,1.0763,1.0763,1.0763,0,1.0907,1.0936,1.0882,1.0898,1.0928,1.0884,1.0915,1.0897,1.088,1.0891,1.0844,1.0855,1.0806,1.0812,1.0783,1.0805,1.0806,1.079,1.0781,1.0792,1.0793,1.0787,1.0779,1.0766,1.0766,1.0765,1.0765,0,1.1024,1.099,1.1014,1.0982,1.0975,1.0998,1.097,1.0983,1.0959,1.0973,1.0974,1.0935,1.0939,1.0902,1.09,1.088,1.0915,1.0899,1.092,1.0913,1.0949,1.0944,1.108,1.1094,1.0966,1.0967,1.0968,0,1.1089,1.111,1.108,1.1083,1.1073,1.108,1.1079,1.1037,1.1038,1.1021,1.1036,1.1036,1.1033,1.1042,1.1013,1.1011,1.0991,1.1039,1.099,1.0999,1.0986,1.0983,1.0983,1.1048,1.1049,1.1051,1.1052,0,1.1208,1.1189,1.119,1.1186,1.1186,1.1181,1.1172,1.1177,1.1131,1.1135,1.1138,1.1136,1.1133,1.1133,1.1125,1.1111,1.1072,1.1068,1.1075,1.1084,1.1093,1.1084,1.0942,1.1064,1.1063,1.1062,1.1061,1.1061,1.1297,1.1311,1.1292,1.1294,1.1283,1.1276,1.1285,1.1262,1.1264,1.1258,1.1234,1.124,1.1223,1.1207,1.1197,1.1201,1.1177,1.1189,1.1191,1.1193,1.1198,1.1097,1.12,1.12,1.1199,1.1199,1.1199,0,1.1408,1.1393,1.1396,1.1384,1.1386,1.1353,1.1341,1.1344,1.135,1.1337,1.1336,1.1338,1.1338,1.131,1.1305,1.1314,1.1296,1.1313,1.131,1.1306,1.1222,1.1213,1.1327,1.1327,1.1327,1.1327,1.1327,1.1327,1.1466,1.1487,1.1467,1.1482,1.1467,1.1473,1.1468,1.1461,1.145,1.1455,1.1454,1.1436,1.1416,1.141,1.1407,1.1399,1.1397,1.142,1.1405,1.1325,1.1313,1.1301,1.1292,1.1421,1.1421,1.1489,1.1489,1.149]}]]